PST,Max TemperatureF,Mean TemperatureF,Min TemperatureF,Max Dew PointF,MeanDew PointF,Min DewpointF,Max Humidity, Mean Humidity, Min Humidity, Max Sea Level PressureIn, Mean Sea Level PressureIn, Min Sea Level PressureIn, Max VisibilityMiles, Mean VisibilityMiles, Min VisibilityMiles, Max Wind SpeedMPH, Mean Wind SpeedMPH, Max Gust SpeedMPH,PrecipitationIn, CloudCover, Events, WindDirDegrees
2014-1-1,35,31,26,31,27,24,92,87,82,30.49,30.41,30.33,10,8,2,10,6,13,0.00,8,,357
2014-1-2,35,32,29,31,29,28,100,91,82,30.36,30.06,29.82,10,2,0,9,3,10,0.00,8,Fog,146
2014-1-3,49,38,26,28,23,14,100,62,24,30.26,29.98,29.79,10,7,0,32,15,41,0.00,2,Fog,276
2014-1-4,44,29,13,22,16,10,88,62,36,30.47,30.39,30.27,10,10,10,15,6,18,0.00,0,,297
2014-1-5,41,28,15,16,13,10,80,55,30,30.66,30.58,30.48,10,10,10,13,4,14,0.00,0,,4
2014-1-6,37,28,18,18,16,12,80,62,44,30.53,30.39,30.22,10,10,10,25,6,32,0.00,0,,360
2014-1-7,33,30,26,28,23,17,92,75,58,30.22,30.15,30.07,10,8,2,26,3,28,0.01,8,Snow,11
2014-1-8,31,24,16,28,24,15,100,93,85,30.12,29.99,29.76,10,5,0,8,3,10,0.01,7,Fog-Rain,355
2014-1-9,38,28,18,32,23,12,100,88,76,29.94,29.81,29.73,10,4,0,13,4,17,T,4,Fog,194
2014-1-10,54,38,22,34,29,22,92,69,45,29.93,29.86,29.72,10,10,10,18,6,24,T,4,Rain,227
2014-1-11,54,45,35,40,33,28,89,64,38,29.65,29.45,29.36,10,8,1,43,19,51,T,3,Rain,213
2014-1-12,49,41,32,35,31,26,79,65,50,30.10,29.94,29.60,10,10,10,21,11,24,0.00,1,,220
2014-1-13,55,46,37,36,34,31,76,61,46,30.49,30.28,30.12,10,10,10,24,12,30,0.00,1,,225
2014-1-14,51,40,29,35,32,28,92,71,50,30.63,30.55,30.47,10,10,10,17,5,22,0.00,0,,15
2014-1-15,45,35,25,34,30,24,92,79,65,30.57,30.50,30.39,10,10,9,15,8,,0.00,0,,3
2014-1-16,42,33,23,33,27,21,100,84,67,30.61,30.54,30.45,10,6,0,12,6,13,0.00,1,Fog,8
2014-1-17,41,31,21,30,23,19,96,80,64,30.46,30.42,30.39,10,6,0,13,5,14,0.00,2,Fog,13
2014-1-18,29,25,20,28,26,18,100,92,84,30.45,30.36,30.26,10,5,1,8,3,9,0.00,7,,27
2014-1-19,32,30,28,27,26,25,92,85,78,30.45,30.30,30.19,10,10,6,7,2,8,0.00,8,,201
2014-1-20,32,31,30,28,27,25,92,85,78,30.59,30.54,30.45,10,10,8,8,4,10,0.00,8,,26
2014-1-21,32,31,29,27,26,25,92,82,72,30.53,30.48,30.41,10,10,8,7,2,9,0.00,,,192
2014-1-22,31,30,28,27,26,26,92,89,85,30.57,30.46,30.40,10,9,7,8,1,9,T,,,132
2014-1-23,31,30,29,28,27,26,100,93,85,30.68,30.63,30.58,10,7,2,8,2,9,0.00,,,74
2014-1-24,32,31,29,28,26,25,100,89,78,30.71,30.67,30.62,10,9,5,7,1,9,T,0,Snow,25
2014-1-25,32,30,28,26,26,25,92,85,78,30.61,30.52,30.41,10,10,7,12,2,,0.00,0,,186
2014-1-26,31,29,27,26,25,24,92,85,78,30.40,30.36,30.32,10,10,6,8,2,10,0.00,,,342
2014-1-27,35,32,29,27,26,24,92,81,69,30.45,30.42,30.35,10,10,6,8,2,9,0.00,8,,306
2014-1-28,32,31,30,29,27,26,92,85,78,30.44,30.33,30.13,10,9,5,8,2,10,0.05,,Rain,59
2014-1-29,33,28,23,29,28,21,92,85,78,30.07,29.81,29.67,10,5,0,9,6,12,0.24,8,Fog-Rain-Snow,350
2014-1-30,34,25,15,28,24,12,96,87,78,29.95,29.83,29.77,10,6,0,13,6,14,0.00,6,Fog,360
2014-1-31,35,28,21,27,20,11,85,71,56,30.16,30.06,29.95,10,10,6,14,7,16,T,4,Snow,326